Portada
METAR-TAF:

METAR-TAF

Aeropuertos :

Base aérea

Tafraoui, Argelia

latitud: 35-32-33N, longitud: 000-31-56W, altitud: 112 m

Observación

El informe se hizo hace 3 horas y 28 minutos, a las 23:00 UTC
Viento 4 kt del sur
Temperatura 13°C
Humedad 51%
Presión 1019 hPa
Visibilidad 10 km o más
Escasas nubes a una altura de 3000 ft

METAR: DAOL 232300Z 18004KT 9999 FEW030 13/03 Q1019

Hora: 03:28 (02:28 UTC)


TAF: falta

Observaciones y pronósticos meteorológicos de más de 4000 aeropuertos (mensajes METAR y TAF).

Los puntos amarillos y rojos representan las estaciones disponibles.

Ponga el ratón en el punto deseado para ver el nombre de la estación.

Haga clic para ver las observaciones y los pronósticos meteorológicos.

Para cambiar el mapa : haga clic en los botones verdes con una cruz de color negro para hacer un zoom, en el botón verde con un guión para alejar o en las flechas verdes para mapas adyacentes.


METAR-TAF: